Dilworth, MN

11:01 PM CST on February 06, 2016 (GMT -0600)
Moorhead Municipal

Weather History for KJKJ - October, 2011

Change the Weather History Date:

Saturday, October 15, 2011

  Actual Average (KFAR) Record (KFAR)
Temperature  
Mean Temperature 47 °F 46 °F  
Max Temperature 55 °F 57 °F 83 °F (1958)
Min Temperature 39 °F 36 °F 18 °F (1952)
Degree Days  
Heating Degree Days 18 19  
Month to date heating degree days 239  
Since 1 July heating degree days 509  
Cooling Degree Days 0 0  
Month to date cooling degree days 0  
Year to date cooling degree days 548  
Moisture  
Dew Point 39 °F    
Average Humidity 72    
Maximum Humidity 93    
Minimum Humidity 51    
Precipitation  
Precipitation 0.00 in 0.08 in 1.79 in (1984)
Month to date precipitation 1.18  
Year to date precipitation 19.81  
Snow  
Snow 0.00 in 0.00 in 1.40 in (1992)
Month to date snowfall 0.1  
Since 1 July snowfall 0.1  
Since 1 September snowfall 0.1  
Snow Depth -    
Sea Level Pressure  
Sea Level Pressure 29.84 in    
Wind  
Wind Speed 13 mph (WNW)    
Max Wind Speed 17 mph    
Max Gust Speed 21 mph    
Visibility 10 miles    
Events      
T = Trace of Precipitation, MM = Missing Value Source: NWS Daily Summary

Daily Weather History Graph

Daily Weather History Graph

Search for Another Location

Airport or City:

Trip Planner

Search our weather history database for the weather conditions in past years. The results will help you decide how hot, cold, wet, or windy it might be!

Date:

Astronomy

Oct. 15, 2011 Rise Set
Actual Time 7:44 AM CDT 6:39 PM CDT
Civil Twilight 7:13 AM CDT 7:10 PM CDT
Nautical Twilight 6:38 AM CDT 7:45 PM CDT
Astronomical Twilight 6:03 AM CDT 8:20 PM CDT
Moon 8:21 PM CDT (10/15) 11:24 AM CDT (10/15)
Length of Visible Light 11h 56m
Length of Day
10h 55m
Waning Gibbous, 89% of the Moon is Illuminated
Oct 15
Waning Gibbous
Oct 19
Last Quarter
Oct 26
New
Nov 2
First Quarter
Nov 10
Full

Hourly Weather History & Observations

Time (CDT) Temp. Windchill Dew Point Humidity Pressure Visibility Wind Dir Wind Speed Gust Speed Precip Events Conditions
12:14 AM 46.4 °F 40.1 °F 41.0 °F 81% 29.85 in 10.0 mi WNW 15.0 mph 19.6 mph N/A   Scattered Clouds
12:34 AM 46.4 °F 40.4 °F 39.2 °F 76% 29.85 in 10.0 mi WNW 13.8 mph - N/A   Clear
1:13 AM 44.6 °F 37.8 °F 39.2 °F 81% 29.85 in 10.0 mi WNW 15.0 mph - N/A   Scattered Clouds
1:34 AM 44.6 °F 38.1 °F 39.2 °F 81% 29.86 in 10.0 mi WNW 13.8 mph - N/A   Scattered Clouds
1:54 AM 44.6 °F 38.1 °F 39.2 °F 81% 29.86 in 10.0 mi WNW 13.8 mph - N/A   Clear
2:14 AM 44.6 °F 37.8 °F 39.2 °F 81% 29.86 in 10.0 mi WNW 15.0 mph - N/A   Clear
2:34 AM 44.6 °F 38.1 °F 39.2 °F 81% 29.86 in 10.0 mi WNW 13.8 mph 20.7 mph N/A   Clear
2:54 AM 44.6 °F 38.1 °F 39.2 °F 81% 29.86 in 10.0 mi WNW 13.8 mph 18.4 mph N/A   Clear
3:14 AM 44.6 °F 38.4 °F 39.2 °F 81% 29.86 in 10.0 mi WNW 12.7 mph - N/A   Clear
3:34 AM 44.6 °F 38.4 °F 39.2 °F 81% 29.86 in 10.0 mi WNW 12.7 mph - N/A   Clear
3:54 AM 42.8 °F 35.8 °F 39.2 °F 87% 29.86 in 10.0 mi WNW 13.8 mph - N/A   Clear
4:14 AM 42.8 °F 36.6 °F 39.2 °F 87% 29.86 in 10.0 mi WNW 11.5 mph - N/A   Clear
4:34 AM 42.8 °F 36.6 °F 39.2 °F 87% 29.86 in 10.0 mi WNW 11.5 mph - N/A   Clear
4:54 AM 42.8 °F 36.2 °F 39.2 °F 87% 29.85 in 10.0 mi WNW 12.7 mph - N/A   Clear
5:14 AM 42.8 °F 37.0 °F 39.2 °F 87% 29.86 in 10.0 mi WNW 10.4 mph - N/A   Clear
5:34 AM 42.8 °F 37.0 °F 39.2 °F 87% 29.86 in 10.0 mi WNW 10.4 mph - N/A   Clear
5:53 AM 42.8 °F 36.6 °F 39.2 °F 87% 29.87 in 10.0 mi WNW 11.5 mph - N/A   Clear
6:14 AM 41.0 °F 34.7 °F 39.2 °F 93% 29.87 in 10.0 mi WNW 10.4 mph - N/A   Clear
6:34 AM 41.0 °F 34.7 °F 39.2 °F 93% 29.87 in 10.0 mi WNW 10.4 mph - N/A   Clear
7:14 AM 39.2 °F 32.5 °F 37.4 °F 93% 29.87 in 10.0 mi WNW 10.4 mph - N/A   Clear
7:34 AM 39.2 °F 33.0 °F 37.4 °F 93% 29.87 in 10.0 mi WNW 9.2 mph - N/A   Clear
8:14 AM 39.2 °F 33.0 °F 37.4 °F 93% 29.87 in 10.0 mi WNW 9.2 mph - N/A   Clear
8:34 AM 41.0 °F 34.7 °F 39.2 °F 93% 29.87 in 10.0 mi WNW 10.4 mph - N/A   Clear
8:54 AM 42.8 °F 36.6 °F 39.2 °F 87% 29.87 in 10.0 mi WNW 11.5 mph - N/A   Clear
9:33 AM 44.6 °F 39.2 °F 39.2 °F 81% 29.87 in 10.0 mi WNW 10.4 mph - N/A   Clear
9:54 AM 46.4 °F 40.7 °F 41.0 °F 81% 29.88 in 10.0 mi WNW 12.7 mph 17.3 mph N/A   Clear
10:14 AM 46.4 °F 40.4 °F 41.0 °F 81% 29.87 in 10.0 mi WNW 13.8 mph - N/A   Clear
10:33 AM 46.4 °F 41.5 °F 41.0 °F 81% 29.87 in 10.0 mi WNW 10.4 mph 18.4 mph N/A   Clear
10:54 AM 48.2 °F - 42.8 °F 82% 29.87 in 10.0 mi NW 12.7 mph - N/A   Clear
11:12 AM 50.0 °F - 41.0 °F 71% 29.87 in 10.0 mi WNW 13.8 mph - N/A   Clear
11:34 AM 50.0 °F - 41.0 °F 71% 29.87 in 10.0 mi WNW 13.8 mph - N/A   Clear
11:54 AM 51.8 °F - 39.2 °F 62% 29.86 in 10.0 mi WNW 13.8 mph 17.3 mph N/A   Clear
12:34 PM 51.8 °F - 37.4 °F 58% 29.86 in 10.0 mi NW 17.3 mph 20.7 mph N/A   Clear
12:54 PM 53.6 °F - 37.4 °F 54% 29.85 in 10.0 mi NW 15.0 mph 20.7 mph N/A   Clear
1:13 PM 53.6 °F - 37.4 °F 54% 29.85 in 10.0 mi NW 13.8 mph 20.7 mph N/A   Clear
1:34 PM 53.6 °F - 37.4 °F 54% 29.84 in 10.0 mi WNW 17.3 mph - N/A   Clear
1:54 PM 53.6 °F - 37.4 °F 54% 29.83 in 10.0 mi NW 11.5 mph 20.7 mph N/A   Clear
2:14 PM 55.4 °F - 37.4 °F 51% 29.82 in 10.0 mi WNW 15.0 mph 19.6 mph N/A   Clear
2:34 PM 55.4 °F - 37.4 °F 51% 29.81 in 10.0 mi NNW 17.3 mph 20.7 mph N/A   Scattered Clouds
2:54 PM 53.6 °F - 37.4 °F 54% 29.82 in 10.0 mi WNW 12.7 mph 19.6 mph N/A   Scattered Clouds
3:14 PM 53.6 °F - 37.4 °F 54% 29.82 in 10.0 mi NW 17.3 mph - N/A   Scattered Clouds
3:34 PM 53.6 °F - 37.4 °F 54% 29.82 in 10.0 mi West 12.7 mph - N/A   Scattered Clouds
3:54 PM 53.6 °F - 37.4 °F 54% 29.82 in 10.0 mi WNW 12.7 mph - N/A   Mostly Cloudy
4:14 PM 53.6 °F - 37.4 °F 54% 29.81 in 10.0 mi West 15.0 mph 18.4 mph N/A   Scattered Clouds
4:34 PM 53.6 °F - 37.4 °F 54% 29.81 in 10.0 mi West 15.0 mph - N/A   Scattered Clouds
4:53 PM 53.6 °F - 37.4 °F 54% 29.82 in 10.0 mi West 16.1 mph - N/A   Scattered Clouds
5:14 PM 53.6 °F - 37.4 °F 54% 29.81 in 10.0 mi WNW 11.5 mph - N/A   Clear
5:34 PM 53.6 °F - 37.4 °F 54% 29.81 in 10.0 mi WNW 11.5 mph - N/A   Clear
5:54 PM 53.6 °F - 37.4 °F 54% 29.81 in 10.0 mi WNW 12.7 mph - N/A   Scattered Clouds
6:14 PM 51.8 °F - 37.4 °F 58% 29.82 in 10.0 mi West 10.4 mph - N/A   Scattered Clouds
6:35 PM 51.8 °F - 39.2 °F 62% 29.81 in 10.0 mi WNW 9.2 mph - N/A   Scattered Clouds
7:14 PM 51.8 °F - 39.2 °F 62% 29.81 in 10.0 mi WNW 8.1 mph - N/A   Mostly Cloudy
7:33 PM 51.8 °F - 39.2 °F 62% 29.82 in 10.0 mi West 9.2 mph - N/A   Mostly Cloudy
7:54 PM 50.0 °F - 39.2 °F 66% 29.82 in 10.0 mi WNW 9.2 mph - N/A   Scattered Clouds
8:14 PM 50.0 °F - 39.2 °F 66% 29.82 in 10.0 mi WNW 8.1 mph - N/A   Scattered Clouds
8:34 PM 48.2 °F - 39.2 °F 71% 29.82 in 10.0 mi WNW 11.5 mph - N/A   Scattered Clouds
8:54 PM 48.2 °F - 39.2 °F 71% 29.82 in 10.0 mi WNW 8.1 mph - N/A   Mostly Cloudy
9:14 PM 48.2 °F - 39.2 °F 71% 29.82 in 10.0 mi WNW 9.2 mph - N/A   Scattered Clouds
9:34 PM 46.4 °F 41.9 °F 39.2 °F 76% 29.83 in 10.0 mi WNW 9.2 mph - N/A   Clear
9:54 PM 46.4 °F 41.9 °F 39.2 °F 76% 29.83 in 10.0 mi WNW 9.2 mph - N/A   Clear
10:14 PM 44.6 °F 39.7 °F 39.2 °F 81% 29.84 in 10.0 mi WNW 9.2 mph - N/A   Clear
10:34 PM 46.4 °F 41.9 °F 39.2 °F 76% 29.83 in 10.0 mi WNW 9.2 mph - N/A   Clear
10:54 PM 44.6 °F 39.7 °F 39.2 °F 81% 29.83 in 10.0 mi WNW 9.2 mph - N/A   Clear
11:13 PM 44.6 °F 39.7 °F 39.2 °F 81% 29.83 in 10.0 mi West 9.2 mph - N/A   Clear
11:34 PM 44.6 °F 39.7 °F 39.2 °F 81% 29.83 in 10.0 mi West 9.2 mph - N/A   Clear
11:54 PM 42.8 °F 38.0 °F 39.2 °F 87% 29.83 in 10.0 mi West 8.1 mph - N/A   Clear